Weather History for Tomahawk, WI

Change the Weather History Date:

Tuesday, January 8, 2013

  Actual Average (KRHI) Record (KRHI)
Temperature  
Mean Temperature 20 °F 12 °F  
Max Temperature 35 °F 21 °F 48 °F (2003)
Min Temperature 5 °F 3 °F -30 °F (1974)
Degree Days  
Heating Degree Days 45 53  
Month to date heating degree days 419  
Since 1 July heating degree days 4045  
Cooling Degree Days 0 0  
Month to date cooling degree days 0  
Year to date cooling degree days 0  
Moisture  
Dew Point 21 °F    
Average Humidity 86    
Maximum Humidity 100    
Minimum Humidity 65    
Precipitation  
Precipitation 0.00 in 0.04 in 0.54 in (1969)
Month to date precipitation 0.30  
Year to date precipitation 0.30  
Snow  
Snow 0.00 in - 9.00 in (1969)
Month to date snowfall  
Since 1 July snowfall  
Snow Depth -    
Sea Level Pressure  
Sea Level Pressure 29.90 in    
Wind  
Wind Speed 2 mph (SSE)    
Max Wind Speed 8 mph    
Max Gust Speed 20 mph    
Visibility 7 miles    
Events Fog    
T = Trace of Precipitation, MM = Missing Value Source: NWS Daily Summary

Daily Weather History Graph

Daily Weather History Graph

Search for Another Location

Airport:

Trip Planner

Search our weather history database for the weather conditions in past years. The results will help you decide how hot, cold, wet, or windy it might be!

Date:

Astronomy

Jan. 08, 2013 Rise Set
Actual Time 7:38 AM CST 4:34 PM CST
Civil Twilight 7:04 AM CST 5:07 PM CST
Nautical Twilight 6:27 AM CST 5:44 PM CST
Astronomical Twilight 5:51 AM CST 6:20 PM CST
Moon 4:10 AM CST (1/8) 1:36 PM CST (1/8)
Length of Visible Light 10h 03m
Length of Day
8h 55m
Waning Crescent, 13% of the Moon is Illuminated
Jan 8
Waning Crescent
Jan 11
New
Jan 18
First Quarter
Jan 26
Full
Feb 3
Last Quarter

Hourly Weather History & Observations

Time (CST) Temp. Windchill Dew Point Humidity Pressure Visibility Wind Dir Wind Speed Gust Speed Precip Events Conditions
12:35 AM 21.2 °F - 19.4 °F 93% 29.94 in 10.0 mi Calm Calm - N/A   Scattered Clouds
12:55 AM 21.2 °F - 19.4 °F 93% 29.94 in 7.0 mi Calm Calm - N/A   Clear
1:15 AM 19.4 °F - 19.4 °F 100% 29.94 in 4.0 mi Calm Calm - N/A   Clear
1:35 AM 19.4 °F - 17.6 °F 93% 29.95 in 5.0 mi Calm Calm - N/A   Clear
1:55 AM 17.6 °F - 15.8 °F 93% 29.95 in 7.0 mi Calm Calm - N/A   Clear
2:15 AM 17.6 °F - 15.8 °F 93% 29.96 in 7.0 mi Calm Calm - N/A   Scattered Clouds
2:35 AM 17.6 °F - 15.8 °F 93% 29.96 in 7.0 mi Calm Calm - N/A   Clear
2:55 AM 19.4 °F - 17.6 °F 93% 29.96 in 7.0 mi Calm Calm - N/A   Clear
3:15 AM 19.4 °F - 17.6 °F 93% 29.96 in 7.0 mi Calm Calm - N/A   Clear
3:35 AM 19.4 °F - 17.6 °F 93% 29.96 in 7.0 mi Calm Calm - N/A   Clear
3:55 AM 19.4 °F - 17.6 °F 93% 29.96 in 7.0 mi Calm Calm - N/A   Clear
4:15 AM 17.6 °F - 14.0 °F 86% 29.96 in 5.0 mi Calm Calm - N/A   Clear
4:35 AM 17.6 °F - 14.0 °F 86% 29.96 in 5.0 mi Calm Calm - N/A   Clear
4:55 AM 15.8 °F - 14.0 °F 93% 29.96 in 4.0 mi Calm Calm - N/A   Clear
5:15 AM 14.0 °F - 12.2 °F 93% 29.97 in 5.0 mi Calm Calm - N/A   Clear
5:35 AM 14.0 °F - 12.2 °F 93% 29.97 in 5.0 mi Calm Calm - N/A   Clear
5:55 AM 12.2 °F - 10.4 °F 92% 29.97 in 7.0 mi Calm Calm - N/A   Clear
6:15 AM 10.4 °F - 6.8 °F 85% 29.97 in 10.0 mi Calm Calm - N/A   Clear
6:35 AM 10.4 °F - 8.6 °F 92% 29.97 in 7.0 mi Calm Calm - N/A   Clear
6:55 AM 8.6 °F - 6.8 °F 92% 29.97 in 7.0 mi Calm Calm - N/A   Clear
7:35 AM 6.8 °F - 3.2 °F 85% 29.97 in 10.0 mi Calm Calm - N/A   Clear
7:55 AM 5.0 °F - 1.4 °F 85% 29.99 in 10.0 mi Calm Calm - N/A   Mostly Cloudy
8:15 AM 14.0 °F - 12.2 °F 93% 29.99 in 2.5 mi Calm Calm - N/A   Overcast
8:55 AM 15.8 °F - 14.0 °F 93% 30.00 in 0.5 mi Calm Calm - N/A Fog Light Freezing Fog
9:15 AM 17.6 °F - 14.0 °F 86% 30.00 in 1.0 mi Calm Calm - N/A   Overcast
9:35 AM 17.6 °F - 15.8 °F 93% 30.01 in 0.5 mi Calm Calm - N/A Fog Light Freezing Fog
9:55 AM 19.4 °F - 17.6 °F 93% 30.01 in 0.5 mi Calm Calm - N/A Fog Light Freezing Fog
10:15 AM 19.4 °F - 17.6 °F 93% 30.01 in 1.5 mi Calm Calm - N/A   Overcast
10:35 AM 21.2 °F - 19.4 °F 93% 30.00 in 2.0 mi Calm Calm - N/A   Overcast
10:55 AM 21.2 °F - 21.2 °F 100% 29.99 in 2.5 mi Calm Calm - N/A   Overcast
11:15 AM 23.0 °F - 23.0 °F 100% 29.97 in 4.0 mi Calm Calm - N/A   Scattered Clouds
11:35 AM 24.8 °F - 23.0 °F 93% 29.97 in 4.0 mi Calm Calm - N/A   Clear
11:55 AM 26.6 °F - 24.8 °F 93% 29.95 in 5.0 mi Calm Calm - N/A   Clear
12:15 PM 28.4 °F - 28.4 °F 100% 29.95 in 7.0 mi Calm Calm - N/A   Clear
12:55 PM 32.0 °F 28.7 °F 28.4 °F 87% 29.92 in 10.0 mi SE 3.5 mph - N/A   Clear
1:15 PM 33.8 °F 29.6 °F 24.8 °F 70% 29.91 in 10.0 mi SE 4.6 mph - N/A   Clear
1:55 PM 35.6 °F 30.7 °F 24.8 °F 65% 29.90 in 10.0 mi SSE 5.8 mph - N/A   Clear
2:15 PM 35.6 °F 31.7 °F 24.8 °F 65% 29.90 in 10.0 mi SSE 4.6 mph - N/A   Clear
2:35 PM 35.6 °F 29.9 °F 26.6 °F 70% 29.88 in 10.0 mi SE 6.9 mph - N/A   Clear
2:55 PM 35.6 °F 30.7 °F 26.6 °F 70% 29.88 in 10.0 mi SE 5.8 mph - N/A   Clear
3:15 PM 33.8 °F 27.0 °F 26.6 °F 75% 29.87 in 10.0 mi SE 8.1 mph - N/A   Clear
3:35 PM 33.8 °F 29.6 °F 26.6 °F 75% 29.86 in 10.0 mi SSE 4.6 mph - N/A   Clear
3:55 PM 32.0 °F 27.5 °F 26.6 °F 80% 29.86 in 10.0 mi SE 4.6 mph - N/A   Clear
4:15 PM 32.0 °F 26.4 °F 26.6 °F 80% 29.85 in 10.0 mi SE 5.8 mph - N/A   Clear
4:35 PM 32.0 °F 27.5 °F 26.6 °F 80% 29.83 in 10.0 mi SE 4.6 mph - N/A   Clear
4:55 PM 32.0 °F 26.4 °F 26.6 °F 80% 29.82 in 10.0 mi SE 5.8 mph - N/A   Clear
5:15 PM 32.0 °F 26.4 °F 24.8 °F 75% 29.81 in 10.0 mi SE 5.8 mph - N/A   Clear
5:35 PM 32.0 °F 27.5 °F 24.8 °F 75% 29.82 in 10.0 mi SE 4.6 mph - N/A   Clear
5:55 PM 32.0 °F 27.5 °F 24.8 °F 75% 29.82 in 10.0 mi SSE 4.6 mph - N/A   Clear
6:15 PM 30.2 °F 23.4 °F 24.8 °F 80% 29.80 in 10.0 mi SSE 6.9 mph - N/A   Clear
6:35 PM 30.2 °F 24.3 °F 24.8 °F 80% 29.80 in 10.0 mi SSE 5.8 mph - N/A   Clear
6:55 PM 30.2 °F 22.6 °F 24.8 °F 80% 29.80 in 10.0 mi SSE 8.1 mph - N/A   Clear
7:35 PM 30.2 °F 23.4 °F 24.8 °F 80% 29.78 in 7.0 mi SSE 6.9 mph - N/A   Clear
7:55 PM 30.2 °F 23.4 °F 24.8 °F 80% 29.78 in 7.0 mi South 6.9 mph - N/A   Clear
8:15 PM 30.2 °F 24.3 °F 24.8 °F 80% 29.77 in 7.0 mi South 5.8 mph - N/A   Scattered Clouds
8:35 PM 32.0 °F 25.6 °F 26.6 °F 80% 29.77 in 7.0 mi South 6.9 mph - N/A   Overcast
8:55 PM 32.0 °F 26.4 °F 26.6 °F 80% 29.76 in 7.0 mi South 5.8 mph - N/A   Overcast
9:15 PM 32.0 °F 26.4 °F 26.6 °F 80% 29.76 in 7.0 mi South 5.8 mph - N/A   Overcast
9:35 PM 32.0 °F 26.4 °F 26.6 °F 80% 29.76 in 10.0 mi South 5.8 mph - N/A   Overcast
9:55 PM 32.0 °F 26.4 °F 28.4 °F 87% 29.76 in 7.0 mi South 5.8 mph - N/A   Overcast
10:15 PM 32.0 °F 25.6 °F 28.4 °F 87% 29.75 in 10.0 mi South 6.9 mph - N/A   Overcast
10:35 PM 32.0 °F 27.5 °F 28.4 °F 87% 29.76 in 10.0 mi South 4.6 mph - N/A   Overcast
10:55 PM 32.0 °F 26.4 °F 28.4 °F 87% 29.75 in 10.0 mi SSW 5.8 mph - N/A   Overcast
11:55 PM 33.8 °F 27.0 °F 28.4 °F 81% 29.76 in 10.0 mi SW 8.1 mph 19.6 mph N/A   Overcast